Vertical_Velocity
4 2 -2 -5 -3 0 1 2 -2 0 -1 1 -1 1 4 -1 -1 -0 -0 -1 2 1 -1 2 -0 -1 -2 0 -3 -1 2 1 -4 1 4 3 3 -0 0 0 2 -2 1
-1 -2 -6 -7 -1 1 5 4 6 -0 2 -1 -0 -1 -0 0 -3 -1 2 2 4 3 2 1 -1 -4 2 -0 2 1 -1 1 5 -2 -4 -2 2 5 1 1 -1 -1 -1
1 -1 -4 -5 -4 2 3 1 0 -0 1 -2 -1 -1 1 2 3 7 7 5 -3 -2 2 0 -1 -2 -0 3 1 -1 0 4 -3 8 -6 1 7 3 4 -1 -2 -0 -1
1 -1 -2 -3 2 0 1 1 0 -0 -0 -3 2 3 1 -2 5 -1 -3 1 2 2 2 1 -1 -1 -2 -1 1 0 5 3 -0 3 7 -1 12 -2 -1 -2 -2 -2 -2
1 0 -3 -1 1 0 1 1 -1 0 -1 -1 -0 -2 1 2 -2 3 0 -0 0 1 1 -2 -0 -0 4 2 5 2 4 5 0 2 3 3 4 -2 2 1 1 2 -1
0 0 -1 -1 1 0 -0 -0 -0 -0 0 -0 0 1 -2 -1 2 0 0 0 -3 -2 3 1 -1 -1 0 -2 0 5 -3 -2 16 -2 3 3 9 2 -5 -4 0 -2 1
-1 -2 -0 -2 1 0 -1 -1 0 -1 -2 -0 1 2 0 -0 -1 -2 -2 -2 2 1 1 -2 -0 -1 2 2 0 -1 -3 5 -0 11 6 1 2 2 -6 -1 -1 -2 0
-2 -1 -0 -2 -1 -1 -1 -1 -1 -1 -2 -1 2 2 0 0 -1 -1 -3 -1 2 0 -2 -1 -4 1 5 2 -0 -1 2 8 11 6 5 5 -5 -5 0 0 2 1 1
-3 -2 -1 -1 -1 -1 -0 -1 -3 -2 2 0 -3 -1 -1 0 1 -1 0 1 -2 -1 -0 0 -2 -1 0 1 2 -1 1 5 -2 18 10 13 -3 -8 -0 1 0 2 2
-2 -1 -1 -0 0 -1 0 1 -1 -1 -2 -1 1 -2 -4 -1 -1 -2 5 0 -0 -0 -0 1 1 1 1 3 4 6 8 7 7 3 19 9 0 -4 3 2 -0 3 2
-3 -1 -2 -1 -0 2 -0 1 1 -1 -2 0 3 4 -1 -3 -0 1 -1 -0 -1 -0 -0 2 -0 3 -4 -1 -2 1 6 10 7 10 3 -0 2 5 2 3 2 3 2
-2 -1 -1 0 0 1 4 1 -1 -1 2 1 0 -1 3 -2 -4 5 -0 -2 -3 -0 -2 -0 -1 -6 -4 -2 -6 -4 1 3 2 -3 0 5 -2 5 2 8 3 4 0
-0 -2 1 1 1 1 3 2 2 -0 -0 1 -1 1 -0 -0 2 0 -5 -1 -2 1 -2 -2 -0 -3 1 -4 4 5 -0 -2 0 13 3 5 4 0 6 7 4 3 -1
1 0 -1 0 3 3 2 2 3 1 0 1 0 1 1 -0 0 2 -4 -4 -1 0 1 -3 -3 -3 -2 -5 -3 -2 2 7 3 -0 1 -5 4 3 6 4 4 -2 0
4 1 2 -0 2 3 3 4 4 1 2 1 -1 -1 1 -1 2 -1 -2 -0 -3 -2 -3 1 -1 1 0 -1 1 2 1 -1 3 7 0 2 5 5 6 3 2 2 4
6 5 5 3 2 5 4 5 4 2 2 1 -0 -2 -2 0 2 -2 -1 2 -3 -3 -5 2 -2 -3 -0 3 1 0 -1 4 4 4 2 3 -0 3 6 5 5 3 2
4 6 4 3 3 1 3 3 3 2 1 0 1 0 0 -1 -1 0 -2 1 1 -2 -1 1 -4 3 1 2 1 1 0 1 2 0 3 4 10 4 4 1 -0 -1 5
4 3 4 2 0 -1 1 1 2 2 2 -1 3 0 -1 -1 -4 -1 1 0 -2 1 1 4 2 1 9 2 6 -1 -2 2 1 1 -2 -0 1 1 -2 -1 1 2 0
2 4 2 1 0 -1 3 1 2 2 1 1 1 2 2 -2 -2 -4 -1 0 1 -2 -3 -4 -1 -1 0 4 2 6 2 1 3 2 -5 -1 0 1 1 6 4 1 7
10 10 7 2 -0 -1 1 0 2 2 0 0 0 4 2 -1 -2 -4 0 -2 -2 -1 -2 -4 -3 1 -0 3 3 5 7 -0 -1 -4 -8 -4 -6 -8 -3 -4 -3 1 -2
-6 10 7 3 3 -6 1 2 2 -0 -2 1 2 4 3 2 -1 -1 -3 -0 0 -2 -2 -3 -1 -3 -3 2 3 7 0 3 9 10 5 7 2 2 6 2 8 10 0
-4 -9 1 2 4 -5 -3 4 6 -6 1 2 1 5 3 1 -1 -1 -0 -0 1 0 2 4 3 -3 -2 -2 5 13 12 11 12 10 8 8 3 5 6 7 9 5 6
-5 0 -2 -4 -2 -3 -0 -2 0 -5 -1 2 2 1 1 0 -3 1 0 1 0 -0 3 4 13 1 2 -0 7 -4 10 4 15 -3 -2 -1 3 1 2 -1 0 -3 -2
-5 -8 2 -2 -10 -0 -5 2 -1 -1 7 -1 0 5 2 2 -0 -3 1 4 2 -1 2 2 2 -0 2 2 2 0 -0 -1 2 2 2 -1 -1 -2 -2 -3 -5 -3 -0
-12 -8 -5 1 6 -1 2 2 -2 1 4 13 -0 8 -1 1 2 -2 -0 6 3 1 1 -1 -1 0 1 0 2 2 1 2 -0 1 -3 1 1 -1 -1 1 2 -1 0
-5 -5 -9 -9 -1 -3 -0 -1 0 -1 12 0 3 2 1 4 5 -0 9 7 2 0 2 -0 -0 -0 1 1 0 0 1 0 -0 0 0 1 1 -0 3 1 -1 0 0
Height
5733 5735 5738 5741 5744 5749 5753 5756 5759 5762 5765 5769 5772 5775 5776 5778 5781 5784 5787 5791 5795 5798 5802 5806 5810 5813 5817 5821 5825 5828 5832 5835 5839 5844 5848 5852 5855 5858 5861 5864 5865 5869 5870
5720 5722 5724 5727 5731 5737 5742 5745 5748 5750 5753 5756 5759 5763 5765 5768 5771 5774 5777 5781 5786 5790 5794 5797 5801 5803 5808 5811 5816 5820 5822 5826 5831 5835 5840 5844 5849 5852 5856 5858 5860 5862 5865
5707 5710 5712 5714 5717 5724 5729 5732 5734 5737 5741 5743 5747 5751 5755 5758 5762 5766 5770 5773 5776 5779 5782 5786 5789 5793 5796 5800 5804 5809 5813 5817 5821 5826 5830 5836 5841 5845 5848 5850 5852 5854 5858
5693 5697 5699 5702 5706 5711 5715 5719 5722 5725 5729 5732 5737 5741 5744 5747 5751 5754 5758 5762 5766 5769 5771 5775 5779 5782 5784 5788 5792 5796 5802 5805 5810 5815 5822 5825 5833 5835 5838 5840 5842 5846 5850
5680 5685 5688 5692 5696 5699 5703 5707 5711 5714 5718 5721 5725 5728 5733 5737 5741 5745 5749 5752 5755 5758 5761 5764 5767 5769 5772 5775 5779 5783 5787 5793 5797 5803 5810 5816 5822 5825 5829 5830 5833 5838 5842
5668 5673 5678 5681 5685 5689 5693 5697 5700 5703 5707 5711 5714 5718 5723 5727 5732 5735 5738 5741 5743 5747 5750 5752 5754 5755 5758 5760 5763 5767 5773 5780 5784 5791 5797 5803 5810 5813 5816 5820 5825 5830 5834
5655 5661 5666 5671 5675 5679 5683 5687 5691 5694 5697 5701 5705 5709 5713 5717 5721 5724 5727 5730 5733 5735 5737 5737 5739 5741 5743 5745 5748 5752 5757 5765 5771 5778 5785 5792 5798 5802 5805 5811 5817 5822 5825
5642 5648 5653 5659 5664 5669 5673 5677 5680 5684 5688 5691 5696 5700 5704 5707 5710 5714 5716 5718 5719 5722 5722 5723 5724 5725 5727 5729 5731 5735 5740 5747 5753 5761 5768 5778 5785 5791 5797 5802 5809 5813 5817
5627 5634 5640 5646 5652 5657 5662 5666 5670 5674 5678 5682 5685 5689 5693 5697 5700 5703 5705 5706 5707 5709 5708 5709 5709 5709 5709 5707 5709 5714 5720 5728 5736 5745 5754 5764 5772 5779 5787 5793 5799 5805 5809
5611 5619 5626 5633 5638 5644 5650 5655 5660 5664 5668 5672 5675 5679 5682 5686 5689 5692 5694 5695 5696 5697 5696 5695 5695 5692 5689 5687 5686 5689 5696 5704 5713 5726 5738 5747 5760 5768 5775 5784 5790 5796 5800
5598 5605 5612 5619 5625 5631 5637 5643 5648 5653 5657 5661 5666 5669 5672 5676 5679 5681 5682 5683 5685 5684 5683 5681 5679 5675 5673 5667 5668 5672 5679 5685 5696 5709 5724 5734 5747 5757 5766 5774 5781 5786 5791
5586 5593 5599 5605 5612 5618 5625 5631 5636 5642 5647 5651 5655 5659 5663 5666 5669 5671 5672 5673 5674 5673 5671 5669 5666 5664 5660 5658 5661 5664 5669 5672 5682 5697 5711 5722 5737 5746 5755 5765 5771 5776 5782
5575 5581 5588 5594 5600 5607 5613 5620 5625 5631 5636 5641 5644 5649 5653 5656 5659 5661 5662 5663 5664 5663 5661 5658 5657 5656 5652 5654 5656 5660 5662 5667 5678 5692 5699 5713 5726 5736 5748 5757 5763 5767 5772
5563 5569 5577 5583 5590 5596 5603 5609 5615 5620 5625 5630 5634 5639 5642 5646 5649 5651 5653 5654 5655 5655 5654 5650 5649 5650 5649 5649 5651 5654 5658 5663 5672 5684 5694 5704 5718 5730 5740 5746 5752 5756 5762
5551 5558 5565 5572 5579 5585 5592 5598 5604 5609 5615 5620 5623 5628 5632 5636 5639 5641 5644 5646 5647 5647 5646 5644 5644 5646 5647 5649 5651 5653 5656 5662 5669 5679 5687 5699 5713 5722 5730 5736 5742 5748 5753
5541 5548 5555 5562 5568 5574 5581 5587 5593 5599 5604 5609 5614 5618 5623 5626 5629 5631 5635 5638 5639 5640 5640 5637 5639 5641 5643 5646 5648 5651 5654 5661 5669 5676 5685 5695 5704 5713 5723 5729 5734 5740 5744
5531 5538 5544 5550 5557 5563 5570 5577 5582 5588 5593 5599 5604 5608 5613 5616 5619 5622 5625 5629 5632 5634 5633 5633 5634 5637 5638 5641 5642 5646 5651 5659 5666 5675 5683 5691 5699 5705 5711 5716 5722 5728 5733
5521 5527 5533 5539 5545 5552 5559 5565 5571 5577 5582 5587 5593 5598 5602 5606 5609 5612 5615 5619 5622 5625 5627 5630 5630 5631 5633 5636 5638 5640 5646 5651 5659 5667 5674 5682 5687 5693 5699 5706 5711 5716 5720
5509 5516 5522 5528 5534 5541 5547 5554 5561 5566 5572 5577 5582 5587 5592 5596 5600 5604 5607 5610 5613 5615 5617 5620 5623 5623 5624 5627 5632 5637 5642 5648 5654 5660 5666 5672 5679 5685 5691 5698 5702 5706 5709
5497 5505 5511 5516 5522 5530 5538 5543 5550 5555 5561 5566 5572 5576 5581 5586 5590 5595 5599 5602 5605 5609 5611 5613 5615 5618 5620 5623 5628 5632 5638 5642 5647 5652 5656 5661 5667 5673 5680 5683 5687 5690 5692
5483 5489 5496 5503 5510 5517 5526 5533 5539 5543 5549 5555 5561 5566 5570 5576 5581 5586 5591 5596 5599 5603 5605 5608 5611 5613 5618 5620 5622 5625 5630 5636 5641 5646 5650 5655 5660 5663 5666 5669 5673 5678 5679
5473 5479 5486 5493 5499 5506 5515 5521 5527 5531 5538 5544 5551 5556 5560 5565 5571 5576 5581 5587 5592 5595 5599 5603 5606 5608 5610 5615 5620 5623 5627 5632 5636 5639 5644 5647 5650 5655 5657 5659 5664 5667 5667
5458 5464 5472 5479 5486 5494 5502 5509 5513 5521 5528 5535 5540 5545 5550 5555 5560 5567 5572 5578 5583 5588 5592 5596 5599 5603 5605 5610 5612 5617 5621 5625 5629 5631 5636 5641 5644 5646 5648 5651 5653 5654 5656
5438 5446 5456 5464 5471 5479 5488 5495 5500 5510 5518 5525 5530 5536 5540 5546 5550 5556 5564 5569 5574 5579 5583 5587 5591 5595 5598 5601 5605 5609 5613 5616 5619 5622 5625 5629 5631 5634 5637 5639 5642 5645 5646
5421 5428 5435 5445 5454 5465 5473 5480 5487 5496 5505 5512 5519 5525 5530 5536 5542 5546 5553 5560 5565 5570 5574 5578 5582 5586 5590 5594 5597 5601 5604 5607 5610 5614 5617 5619 5622 5624 5627 5630 5632 5634 5636
5407 5408 5414 5425 5437 5448 5457 5464 5473 5480 5491 5498 5505 5513 5520 5525 5532 5538 5544 5549 5554 5560 5565 5569 5573 5577 5580 5583 5587 5591 5594 5597 5600 5603 5606 5609 5612 5614 5616 5619 5621 5623 5624